EW3533 Weather Reports


Display with metric or nautical units.
time (UTC)temp
F
wind
direction
speed
MPH
gust
MPH
rain 1hr
in
rain 24hr
in
rain mn
in
humidity
%
barometer
mb
20260901031539 70 227 0.0 4.0 0.00 0.09 0.09 90 1012.1
20260901030038 70 228 0.0 1.0 0.00 0.09 0.09 90 1012.2
20260901024539 69 228 0.0 0.0 0.00 0.09 0.09 90 1012.2
20260901023037 69 228 0.0 1.0 0.00 0.09 0.09 89 1012.1
20260901021539 69 228 0.0 2.0 0.00 0.09 0.09 89 1012.4
20260901020036 70 227 1.0 2.0 0.00 0.09 0.09 88 1012.3
20260901014535 70 228 0.0 0.0 0.00 0.09 0.09 87 1012.4
20260901013035 70 228 0.0 1.0 0.00 0.09 0.09 86 1012.3
20260901011538 71 228 0.0 0.0 0.00 0.09 0.09 85 1012.2
20260901010050 71 228 0.0 2.0 0.00 0.09 0.09 85 1011.9
20260901004535 72 228 0.0 1.0 0.00 0.09 0.09 84 1011.7
20260901003036 73 228 0.0 1.0 0.00 0.09 0.09 83 1011.6
20260901001531 73 228 0.0 3.0 0.00 0.09 0.09 82 1011.5
20260901000032 74 228 0.0 3.0 0.00 0.09 0.09 80 1011.4
20260831234531 76 227 2.0 5.0 0.00 0.09 0.09 77 1011.4
20260831233040 77 213 1.0 7.0 0.00 0.09 0.09 74 1011.3
20260831231536 78 209 1.0 6.0 0.00 0.09 0.09 73 1011.1
20260831230031 79 212 2.0 9.0 0.00 0.09 0.09 72 1011.0
20260831224528 80 178 3.0 11.0 0.00 0.09 0.09 71 1011.2
20260831223027 80 178 2.0 10.0 0.00 0.09 0.09 73 1011.3
20260831221533 80 193 4.0 9.0 0.00 0.09 0.09 72 1011.4
20260831220025 80 207 4.0 11.0 0.00 0.09 0.09 74 1011.6
20260831214520 80 227 2.0 9.0 0.00 0.09 0.09 79 1011.9
20260831211517 79 209 3.0 9.0 0.00 0.09 0.09 79 1012.2
20260831210013 78 209 3.0 14.0 0.00 0.09 0.09 81 1012.2
20260831204512 78 190 1.0 10.0 0.00 0.09 0.09 79 1012.1
20260831203010 79 225 2.0 8.0 0.00 0.09 0.09 77 1012.3
20260831201515 79 267 2.0 10.0 0.00 0.09 0.09 77 1012.3
20260831200010 79 183 2.0 10.0 0.00 0.09 0.09 76 1012.3
20260831194507 79 155 3.0 12.0 0.00 0.09 0.09 78 1012.3
20260831193006 78 153 3.0 7.0 0.00 0.09 0.09 80 1012.5
20260831191600 77 146 3.0 8.0 0.00 0.09 0.09 83 1012.6
20260831190105 75 186 3.0 9.0 0.00 0.09 0.09 89 1012.8
20260831184550 72 171 3.0 7.0 0.00 0.09 0.09 92 1013.2
20260831183100 72 179 2.0 11.0 0.00 0.09 0.09 92 1013.0
20260831181549 71 146 4.0 9.0 0.00 0.09 0.09 93 1014.5
20260831180055 71 105 1.0 9.0 0.00 0.09 0.09 93 1015.3
20260831174545 71 99 1.0 4.0 0.00 0.09 0.09 93 1015.2
20260831173043 71 78 1.0 3.0 0.00 0.09 0.09 93 1015.0
20260831171542 71 38 0.0 4.0 0.00 0.09 0.09 93 1015.4
20260831170043 71 115 1.0 3.0 0.00 0.09 0.09 93 1015.2
20260831164547 71 119 1.0 5.0 0.01 0.30 0.09 93 1014.7
20260831163043 70 241 0.0 3.0 0.02 0.30 0.09 93 1014.9
20260831161549 70 242 0.0 2.0 0.02 0.30 0.09 93 1014.9
20260831160039 70 242 0.0 1.0 0.03 0.30 0.09 92 1015.6
20260831154539 70 242 0.0 2.0 0.04 0.38 0.08 92 1015.6
20260831153038 70 242 0.0 2.0 0.06 0.37 0.07 92 1015.5
20260831151537 70 242 2.0 4.0 0.06 0.37 0.07 92 1016.4
20260831150035 70 243 1.0 3.0 0.06 0.36 0.06 91 1016.6
20260831144534 70 240 0.0 3.0 0.04 0.54 0.04 91 1016.2
20260831143032 70 238 0.0 1.0 0.01 0.51 0.01 90 1015.7
20260831141528 70 238 0.0 3.0 0.01 0.51 0.01 89 1015.3
20260831140028 71 246 2.0 5.0 0.00 0.50 0.00 89 1015.2
20260831134526 71 243 3.0 9.0 0.00 0.63 0.00 88 1014.8
20260831133030 71 232 4.0 9.0 0.00 0.63 0.00 87 1014.8
20260831131525 71 243 5.0 10.0 0.00 0.63 0.00 87 1014.9
20260831130024 71 212 5.0 11.0 0.00 0.63 0.00 88 1014.6
20260831124522 70 237 6.0 11.0 0.00 0.67 0.00 90 1014.7
20260831123018 70 232 4.0 8.0 0.00 0.67 0.00 91 1014.4
20260831121514 69 228 2.0 5.0 0.00 0.67 0.00 92 1014.3
20260831120013 68 206 2.0 5.0 0.00 0.67 0.00 92 1014.4
20260831114512 68 202 1.0 5.0 0.00 0.74 0.00 92 1014.3
20260831113013 68 199 1.0 3.0 0.00 0.74 0.00 93 1014.2
20260831111511 67 199 0.0 3.0 0.00 0.74 0.00 93 1014.3
20260831110011 67 198 1.0 2.0 0.00 0.74 0.00 93 1014.2
20260831104518 67 198 0.0 1.0 0.00 0.77 0.00 93 1014.6
20260831103009 67 198 0.0 2.0 0.00 0.77 0.00 92 1014.8
20260831101508 67 198 0.0 0.0 0.00 0.77 0.00 92 1015.2
20260831100008 67 198 0.0 1.0 0.00 0.77 0.00 92 1015.0
20260831094506 67 198 0.0 0.0 0.00 0.77 0.00 92 1014.9
20260831093007 67 198 0.0 1.0 0.00 0.77 0.00 92 1014.8
20260831091506 67 198 2.0 3.0 0.00 0.77 0.00 92 1014.6
20260831090106 68 198 1.0 2.0 0.00 0.77 0.00 92 1014.7
20260831084502 68 198 0.0 2.0 0.00 0.78 0.00 92 1014.7
20260831083002 67 198 0.0 1.0 0.00 0.78 0.00 92 1014.4
20260831081501 67 198 0.0 3.0 0.00 0.78 0.00 92 1014.3
20260831080106 68 198 0.0 2.0 0.00 0.78 0.00 92 1014.3
20260831074559 68 198 1.0 2.0 0.00 0.78 0.00 92 1014.3
20260831073057 68 198 0.0 2.0 0.00 0.78 0.00 92 1014.3
20260831071554 68 198 0.0 1.0 0.00 0.78 0.00 92 1014.5
20260831070105 68 198 0.0 1.0 0.00 0.78 0.00 92 1014.7
20260831064550 68 198 0.0 0.0 0.00 0.79 0.00 91 1014.9
20260831063050 69 198 0.0 1.0 0.00 0.79 0.00 91 1015.0
20260831061549 69 198 0.0 2.0 0.00 0.79 0.00 91 1015.0
20260831060048 69 198 0.0 2.0 0.00 0.79 0.00 91 1015.0
20260831054548 69 198 0.0 1.0 0.00 0.79 0.00 91 1015.1
20260831053047 69 198 0.0 1.0 0.00 0.79 0.00 90 1015.1
20260831051550 69 198 1.0 2.0 0.00 0.79 0.00 90 1015.0
20260831050042 70 198 1.0 2.0 0.00 0.79 0.00 90 1015.0
20260831044551 70 198 0.0 1.0 0.00 0.83 0.00 90 1014.9
20260831043040 70 198 0.0 1.0 0.00 0.83 0.00 90 1014.9
20260831041548 70 198 0.0 2.0 0.00 0.83 0.00 90 1014.9
20260831040036 70 198 0.0 2.0 0.00 0.83 0.00 89 1015.0
20260831034536 70 198 1.0 2.0 0.00 0.84 0.83 89 1014.9
20260831033036 70 198 1.0 4.0 0.00 0.84 0.83 89 1014.9